| time (UTC) | temp F | wind direction | speed MPH | gust MPH | rain 1hr in | rain 24hr in | rain mn in | humidity % | barometer mb |
| 20260507130607 | 68 | 133 | 3.0 | 3.0 | 0.00 | 0.00 | 0.00 | 60 | 1014.9 |
| 20260507125607 | 68 | 194 | 4.0 | 6.0 | 0.00 | 0.00 | 0.00 | 64 | 1014.9 |
| 20260507124608 | 67 | 128 | 2.0 | 3.0 | 0.00 | 0.00 | 0.00 | 63 | 1014.9 |
| 20260507123607 | 67 | 139 | 3.0 | 3.0 | 0.00 | 0.00 | 0.00 | 64 | 1014.6 |
| 20260507122607 | 67 | 96 | 2.0 | 3.0 | 0.00 | 0.00 | 0.00 | 65 | 1014.6 |
| 20260507121607 | 68 | 253 | 1.0 | 2.0 | 0.00 | 0.00 | 0.00 | 66 | 1014.6 |
| 20260507120607 | 68 | 111 | 3.0 | 3.0 | 0.00 | 0.00 | 0.00 | 66 | 1014.6 |
| 20260507115607 | 68 | 148 | 2.0 | 3.0 | 0.00 | 0.00 | 0.00 | 66 | 1014.6 |
| 20260507114607 | 68 | 122 | 3.0 | 3.0 | 0.00 | 0.00 | 0.00 | 68 | 1014.2 |
| 20260507113607 | 68 | 144 | 3.0 | 3.0 | 0.00 | 0.00 | 0.00 | 67 | 1014.6 |
| 20260507112613 | 68 | 185 | 2.0 | 3.0 | 0.00 | 0.00 | 0.00 | 70 | 1014.6 |
| 20260507111607 | 68 | 169 | 0.0 | 3.0 | 0.00 | 0.00 | 0.00 | 70 | 1014.6 |
| 20260507110607 | 68 | 198 | 2.0 | 2.0 | 0.00 | 0.00 | 0.00 | 68 | 1014.6 |
| 20260507105607 | 69 | 170 | 3.0 | 3.0 | 0.00 | 0.00 | 0.00 | 67 | 1014.6 |
| 20260507104607 | 68 | 161 | 3.0 | 4.0 | 0.00 | 0.00 | 0.00 | 67 | 1014.6 |
| 20260507103607 | 67 | 182 | 2.0 | 3.0 | 0.00 | 0.00 | 0.00 | 66 | 1014.6 |
| 20260507102607 | 68 | 80 | 3.0 | 3.0 | 0.00 | 0.00 | 0.00 | 67 | 1014.6 |
| 20260507101607 | 68 | 198 | 3.0 | 4.0 | 0.00 | 0.00 | 0.00 | 67 | 1014.6 |
| 20260507100607 | 68 | 0 | 3.0 | 4.0 | 0.00 | 0.00 | 0.00 | 66 | 1014.9 |
| 20260507095607 | 68 | 175 | 3.0 | 4.0 | 0.00 | 0.00 | 0.00 | 68 | 1014.6 |
| 20260507094607 | 67 | 357 | 2.0 | 2.0 | 0.00 | 0.00 | 0.00 | 68 | 1014.6 |
| 20260507093607 | 66 | 174 | 2.0 | 3.0 | 0.00 | 0.00 | 0.00 | 72 | 1014.6 |
| 20260507091607 | 66 | 90 | 2.0 | 2.0 | 0.00 | 0.00 | 0.00 | 71 | 1014.6 |
| 20260507090607 | 66 | 253 | 3.0 | 3.0 | 0.00 | 0.00 | 0.00 | 70 | 1014.6 |
| 20260507085607 | 66 | 180 | 4.0 | 5.0 | 0.00 | 0.00 | 0.00 | 71 | 1014.6 |
| 20260507084607 | 66 | 90 | 3.0 | 3.0 | 0.00 | 0.00 | 0.00 | 71 | 1014.6 |
| 20260507083607 | 67 | 148 | 1.0 | 2.0 | 0.00 | 0.00 | 0.00 | 68 | 1014.2 |
| 20260507082607 | 66 | 184 | 2.0 | 3.0 | 0.00 | 0.00 | 0.00 | 68 | 1014.2 |
| 20260507081607 | 66 | 152 | 3.0 | 3.0 | 0.00 | 0.00 | 0.00 | 67 | 1014.2 |
| 20260507080607 | 67 | 95 | 0.0 | 1.0 | 0.00 | 0.00 | 0.00 | 66 | 1014.2 |
| 20260507075607 | 67 | 199 | 2.0 | 3.0 | 0.00 | 0.00 | 0.00 | 65 | 1013.9 |
| 20260507074607 | 67 | 189 | 1.0 | 2.0 | 0.00 | 0.00 | 0.00 | 64 | 1014.2 |
| 20260507073607 | 66 | 154 | 2.0 | 3.0 | 0.00 | 0.00 | 0.00 | 63 | 1014.2 |
| 20260507072607 | 65 | 181 | 3.0 | 3.0 | 0.00 | 0.00 | 0.00 | 66 | 1013.9 |
| 20260507071607 | 66 | 225 | 1.0 | 2.0 | 0.00 | 0.00 | 0.00 | 66 | 1013.9 |
| 20260507070607 | 65 | 172 | 2.0 | 3.0 | 0.00 | 0.00 | 0.00 | 66 | 1013.9 |
| 20260507065607 | 64 | 153 | 2.0 | 2.0 | 0.00 | 0.00 | 0.00 | 66 | 1013.5 |
| 20260507064607 | 64 | 132 | 1.0 | 3.0 | 0.00 | 0.00 | 0.00 | 69 | 1013.5 |
| 20260507063607 | 65 | 181 | 1.0 | 1.0 | 0.00 | 0.00 | 0.00 | 69 | 1013.5 |
| 20260507062607 | 63 | 157 | 1.0 | 1.0 | 0.00 | 0.00 | 0.00 | 71 | 1013.5 |
| 20260507061607 | 61 | 25 | 2.0 | 3.0 | 0.00 | 0.00 | 0.00 | 71 | 1013.2 |
| 20260507060607 | 61 | 21 | 3.0 | 3.0 | 0.00 | 0.00 | 0.00 | 72 | 1013.2 |
| 20260507055607 | 60 | 26 | 3.0 | 4.0 | 0.00 | 0.00 | 0.00 | 71 | 1013.2 |
| 20260507054607 | 60 | 0 | 3.0 | 3.0 | 0.00 | 0.00 | 0.00 | 70 | 1013.2 |
| 20260507053607 | 60 | 2 | 1.0 | 2.0 | 0.00 | 0.00 | 0.00 | 74 | 1012.9 |
| 20260507052607 | 60 | 272 | 2.0 | 2.0 | 0.00 | 0.00 | 0.00 | 72 | 1012.9 |
| 20260507051607 | 59 | 339 | 1.0 | 2.0 | 0.00 | 0.00 | 0.00 | 72 | 1012.9 |
| 20260507050607 | 56 | 339 | 2.0 | 2.0 | 0.00 | 0.00 | 0.00 | 77 | 1012.5 |
| 20260507045607 | 54 | 279 | 2.0 | 2.0 | 0.00 | 0.00 | 0.00 | 81 | 1012.5 |
| 20260507044607 | 53 | 202 | 1.0 | 1.0 | 0.00 | 0.00 | 0.00 | 85 | 1012.5 |
| 20260507043607 | 53 | 201 | 0.0 | 0.0 | 0.00 | 0.00 | 0.00 | 86 | 1012.2 |
| 20260507042607 | 54 | 232 | 1.0 | 2.0 | 0.00 | 0.00 | 0.00 | 83 | 1012.2 |
| 20260507041607 | 54 | 219 | 0.0 | 1.0 | 0.00 | 0.00 | 0.00 | 83 | 1012.2 |
| 20260507040607 | 54 | 226 | 1.0 | 1.0 | 0.00 | 0.00 | 0.00 | 84 | 1012.2 |
| 20260507035607 | 53 | 314 | 1.0 | 1.0 | 0.00 | 0.00 | 0.00 | 88 | 1012.2 |
| 20260507034607 | 54 | 224 | 0.0 | 1.0 | 0.00 | 0.00 | 0.00 | 86 | 1012.2 |
| 20260507033607 | 54 | 213 | 0.0 | 0.0 | 0.00 | 0.00 | 0.00 | 85 | 1011.9 |
| 20260507032607 | 53 | 317 | 1.0 | 1.0 | 0.00 | 0.00 | 0.00 | 88 | 1011.9 |
| 20260507031607 | 53 | 202 | 2.0 | 3.0 | 0.00 | 0.00 | 0.00 | 88 | 1011.9 |
| 20260507030608 | 53 | 241 | 1.0 | 1.0 | 0.00 | 0.00 | 0.00 | 90 | 1011.9 |
| 20260507025607 | 54 | 207 | 1.0 | 1.0 | 0.00 | 0.00 | 0.00 | 89 | 1011.9 |
| 20260507024607 | 53 | 233 | 0.0 | 1.0 | 0.00 | 0.00 | 0.00 | 89 | 1011.9 |
| 20260507023607 | 54 | 203 | 0.0 | 0.0 | 0.00 | 0.00 | 0.00 | 86 | 1011.9 |
| 20260507022607 | 55 | 265 | 2.0 | 3.0 | 0.00 | 0.00 | 0.00 | 80 | 1011.9 |
| 20260507021607 | 55 | 250 | 1.0 | 2.0 | 0.00 | 0.00 | 0.00 | 80 | 1011.9 |
| 20260507020607 | 55 | 239 | 3.0 | 3.0 | 0.00 | 0.00 | 0.00 | 82 | 1011.9 |
| 20260507015607 | 54 | 219 | 1.0 | 1.0 | 0.00 | 0.00 | 0.00 | 82 | 1011.5 |
| 20260507014607 | 54 | 214 | 0.0 | 0.0 | 0.00 | 0.00 | 0.00 | 80 | 1011.5 |
| 20260507013607 | 54 | 233 | 1.0 | 1.0 | 0.00 | 0.00 | 0.00 | 82 | 1011.2 |
| 20260507012607 | 56 | 198 | 0.0 | 0.0 | 0.00 | 0.00 | 0.00 | 77 | 1011.2 |
| 20260507011607 | 56 | 358 | 3.0 | 4.0 | 0.00 | 0.00 | 0.00 | 76 | 1011.5 |
| 20260507010607 | 54 | 224 | 0.0 | 1.0 | 0.00 | 0.00 | 0.00 | 80 | 1011.5 |
| 20260507005607 | 55 | 224 | 1.0 | 1.0 | 0.00 | 0.00 | 0.00 | 80 | 1011.5 |
| 20260507004607 | 54 | 211 | 0.0 | 0.0 | 0.00 | 0.00 | 0.00 | 79 | 1011.5 |
| 20260507003607 | 54 | 203 | 0.0 | 0.0 | 0.00 | 0.00 | 0.00 | 81 | 1011.5 |
| 20260507002607 | 56 | 186 | 2.0 | 3.0 | 0.00 | 0.00 | 0.00 | 75 | 1011.5 |
| 20260507001607 | 56 | 347 | 2.0 | 2.0 | 0.00 | 0.00 | 0.00 | 78 | 1011.5 |
| 20260507000607 | 56 | 206 | 0.0 | 1.0 | 0.00 | 0.00 | 0.00 | 80 | 1011.5 |
| 20260506235607 | 56 | 194 | 0.0 | 2.0 | 0.00 | 0.00 | 0.00 | 78 | 1011.5 |
| 20260506234607 | 56 | 315 | 2.0 | 2.0 | 0.00 | 0.00 | 0.00 | 77 | 1011.5 |
| 20260506233607 | 56 | 209 | 1.0 | 2.0 | 0.00 | 0.00 | 0.00 | 80 | 1011.5 |
| 20260506232607 | 56 | 332 | 1.0 | 1.0 | 0.00 | 0.00 | 0.00 | 80 | 1011.5 |
| 20260506231607 | 56 | 214 | 1.0 | 2.0 | 0.00 | 0.00 | 0.00 | 79 | 1011.5 |
| 20260506225607 | 57 | 259 | 3.0 | 4.0 | 0.00 | 0.00 | 0.14 | 76 | 1011.5 |
| 20260506224607 | 56 | 270 | 3.0 | 3.0 | 0.00 | 0.00 | 0.14 | 80 | 1011.5 |
| 20260506223607 | 55 | 219 | 1.0 | 1.0 | 0.00 | 0.00 | 0.14 | 84 | 1011.5 |
| 20260506222607 | 55 | 218 | 0.0 | 0.0 | 0.00 | 0.00 | 0.14 | 84 | 1011.2 |
| 20260506221607 | 56 | 204 | 0.0 | 0.0 | 0.00 | 0.00 | 0.14 | 84 | 1011.2 |
| 20260506220607 | 56 | 357 | 1.0 | 2.0 | 0.00 | 0.00 | 0.14 | 82 | 1011.2 |
| 20260506215607 | 56 | 281 | 0.0 | 0.0 | 0.00 | 0.00 | 0.14 | 86 | 1011.2 |
| 20260506214607 | 56 | 195 | 0.0 | 1.0 | 0.00 | 0.00 | 0.14 | 91 | 1011.2 |
| 20260506213607 | 56 | 213 | 1.0 | 1.0 | 0.00 | 0.00 | 0.14 | 90 | 1011.5 |
| 20260506212605 | 56 | 217 | 1.0 | 1.0 | 0.00 | 0.00 | 0.14 | 89 | 1011.5 |
| 20260506211604 | 56 | 217 | 1.0 | 2.0 | 0.00 | 0.00 | 0.14 | 88 | 1011.5 |
| 20260506210604 | 57 | 204 | 0.0 | 0.0 | 0.00 | 0.00 | 0.14 | 88 | 1011.2 |
| 20260506205604 | 57 | 234 | 0.0 | 0.0 | 0.00 | 0.00 | 0.14 | 87 | 1011.5 |
| 20260506204604 | 57 | 207 | 1.0 | 2.0 | 0.00 | 0.00 | 0.14 | 85 | 1011.5 |
| 20260506203604 | 57 | 329 | 1.0 | 3.0 | 0.00 | 0.00 | 0.14 | 87 | 1011.5 |
| 20260506201608 | 57 | 240 | 0.0 | 0.0 | 0.00 | 0.00 | 0.14 | 89 | 1011.2 |
| 20260506200604 | 57 | 214 | 0.0 | 0.0 | 0.00 | 0.00 | 0.14 | 89 | 1011.2 |
| 20260506195604 | 58 | 230 | 1.0 | 1.0 | 0.00 | 0.00 | 0.14 | 87 | 1011.2 |
| 20260506194604 | 58 | 197 | 1.0 | 1.0 | 0.00 | 0.00 | 0.14 | 86 | 1010.8 |
| 20260506193604 | 58 | 182 | 1.0 | 2.0 | 0.00 | 0.00 | 0.14 | 86 | 1010.8 |
| 20260506192604 | 58 | 176 | 1.0 | 1.0 | 0.00 | 0.00 | 0.14 | 85 | 1010.5 |
| 20260506191604 | 58 | 190 | 0.0 | 1.0 | 0.00 | 0.00 | 0.14 | 84 | 1010.5 |
| 20260506190604 | 58 | 203 | 1.0 | 2.0 | 0.00 | 0.00 | 0.14 | 84 | 1010.2 |
| 20260506185604 | 58 | 220 | 1.0 | 1.0 | 0.00 | 0.00 | 0.14 | 84 | 1010.2 |
| 20260506184604 | 58 | 207 | 1.0 | 1.0 | 0.00 | 0.00 | 0.14 | 83 | 1010.2 |
| 20260506183604 | 59 | 180 | 1.0 | 2.0 | 0.00 | 0.00 | 0.14 | 82 | 1009.8 |
| 20260506182604 | 59 | 193 | 0.0 | 0.0 | 0.00 | 0.00 | 0.14 | 82 | 1009.8 |
| 20260506181604 | 59 | 202 | 1.0 | 2.0 | 0.00 | 0.00 | 0.14 | 79 | 1009.8 |
| 20260506180604 | 59 | 249 | 0.0 | 1.0 | 0.00 | 0.00 | 0.14 | 79 | 1009.8 |
| 20260506174604 | 60 | 217 | 0.0 | 0.0 | 0.00 | 0.00 | 0.14 | 80 | 1009.8 |
| 20260506173606 | 60 | 221 | 0.0 | 1.0 | 0.00 | 0.00 | 0.14 | 77 | 1009.5 |
| 20260506172604 | 61 | 203 | 1.0 | 1.0 | 0.00 | 0.00 | 0.14 | 77 | 1009.5 |
| 20260506171604 | 61 | 202 | 0.0 | 1.0 | 0.00 | 0.00 | 0.14 | 77 | 1009.5 |
| 20260506170604 | 62 | 186 | 0.0 | 1.0 | 0.00 | 0.00 | 0.14 | 75 | 1009.8 |
| 20260506165604 | 62 | 115 | 0.0 | 1.0 | 0.00 | 0.00 | 0.14 | 75 | 1009.8 |
| 20260506164604 | 63 | 197 | 2.0 | 2.0 | 0.00 | 0.00 | 0.14 | 71 | 1009.8 |
| 20260506163604 | 63 | 178 | 1.0 | 1.0 | 0.00 | 0.00 | 0.14 | 66 | 1009.5 |
| 20260506162604 | 64 | 32 | 1.0 | 2.0 | 0.00 | 0.00 | 0.14 | 65 | 1009.5 |
| 20260506160604 | 65 | 194 | 0.0 | 1.0 | 0.00 | 0.00 | 0.14 | 64 | 1009.5 |
| 20260506155604 | 66 | 161 | 2.0 | 2.0 | 0.00 | 0.00 | 0.14 | 64 | 1009.5 |
| 20260506154604 | 66 | 158 | 2.0 | 3.0 | 0.00 | 0.00 | 0.14 | 63 | 1009.5 |
| 20260506153604 | 66 | 204 | 1.0 | 2.0 | 0.00 | 0.00 | 0.14 | 63 | 1009.5 |
| 20260506152604 | 66 | 66 | 3.0 | 4.0 | 0.00 | 0.00 | 0.14 | 63 | 1009.5 |
| 20260506151604 | 66 | 200 | 2.0 | 2.0 | 0.00 | 0.00 | 0.14 | 63 | 1009.5 |
| 20260506150604 | 65 | 353 | 5.0 | 7.0 | 0.00 | 0.00 | 0.14 | 63 | 1009.5 |
| 20260506145604 | 66 | 12 | 3.0 | 3.0 | 0.00 | 0.00 | 0.14 | 64 | 1009.8 |
| 20260506144604 | 67 | 25 | 3.0 | 4.0 | 0.00 | 0.00 | 0.14 | 63 | 1009.5 |
| 20260506143604 | 68 | 72 | 2.0 | 2.0 | 0.00 | 0.00 | 0.14 | 63 | 1009.8 |
| 20260506142604 | 68 | 207 | 3.0 | 3.0 | 0.00 | 0.00 | 0.14 | 64 | 1009.8 |
| 20260506141604 | 67 | 358 | 3.0 | 6.0 | 0.00 | 0.00 | 0.14 | 64 | 1009.8 |
| 20260506140604 | 68 | 170 | 1.0 | 3.0 | 0.00 | 0.00 | 0.14 | 64 | 1009.8 |
| 20260506135604 | 68 | 185 | 2.0 | 3.0 | 0.00 | 0.00 | 0.14 | 65 | 1009.8 |
| 20260506134604 | 68 | 152 | 3.0 | 3.0 | 0.00 | 0.00 | 0.14 | 64 | 1009.8 |
| 20260506133604 | 68 | 79 | 2.0 | 3.0 | 0.00 | 0.00 | 0.14 | 66 | 1009.8 |
| 20260506132604 | 67 | 222 | 2.0 | 3.0 | 0.00 | 0.00 | 0.14 | 69 | 1010.2 |
| 20260506131604 | 67 | 218 | 2.0 | 6.0 | 0.00 | 0.00 | 0.14 | 71 | 1010.2 |